Flag Weather past 2 weeks in Montreal, Quebec, Canada

Now
28 °F

Overcast.


Feels Like: 21 °F
Forecast: 29 / 33 °F
Wind: 7 mph from North

Location: Montreal - Pierre Elliot Trudeau International Aiport

Current Time: Nov 27, 2014 at 7:02:30 AM

Latest Report: Nov 27, 2014 at 6:00 AM


Visibility: 15 mi

Pressure: 30.01 "Hg

Humidity: 64%

Dew point: 18 °F

Location of MontrealLocation

Historic Weather in Montreal — Graph

°F

Montreal temperature yesterday

Maximum temperature yesterday: 36 °F (at 12:00 AM)
Minimum temperature yesterday: 30 °F (at 7:00 AM)
Average temperature yesterday: 32 °F

Past Weeks' High & Low Weather Summary

 TemperatureHumidityPressure
High64 °F (Nov 24, 4:00 PM)100% (Nov 12, 10:00 AM)30.35 "Hg (Nov 12, 10:00 AM)
Low18 °F (Nov 19, 8:00 AM)40% (Nov 20, 1:00 PM)29.27 "Hg (Nov 24, 5:00 PM)
Average33 °F71%29.92 "Hg
* Reported Nov 12 6:00 AM — Nov 27 6:00 AM, Montreal, Weather by CustomWeather, © 2014

Note: Actual official high and low records may vary slightly from our data, if they occured in-between our weather recording intervals... More about our weather records

Advertising

Montreal weather history for previous 24 hours

 ConditionsComfort  
Time TempWeatherWind HumidityBarometerVisibility
6:00 AM
Nov 27
28 °FOvercast.7 mph64%30.01 "Hg15 mi
5:00 AM28 °FOvercast.12 mph64%30.01 "Hg15 mi
4:00 AM30 °FOvercast.12 mph64%30.01 "Hg15 mi
3:00 AM30 °FMostly cloudy.12 mph64%30.02 "Hg15 mi
2:00 AM30 °FMostly cloudy.15 mph64%30.01 "Hg15 mi
1:00 AM30 °FOvercast.13 mph64%30.01 "Hg15 mi
12:00 AM30 °FOvercast.15 mph64%30.03 "Hg15 mi
11:00 PM
Nov 26
30 °FOvercast.14 mph64%30.04 "Hg15 mi
10:00 PM30 °FOvercast.14 mph64%30.06 "Hg15 mi
9:00 PM32 °FOvercast.12 mph60%30.09 "Hg15 mi
8:00 PM32 °FOvercast.14 mph64%30.10 "Hg15 mi
7:00 PM32 °FOvercast.13 mph64%30.13 "Hg15 mi
6:00 PM32 °FOvercast.10 mph64%30.14 "Hg15 mi
5:00 PM32 °FOvercast.12 mph64%30.17 "Hg15 mi
4:00 PM32 °FOvercast.10 mph64%30.18 "Hg15 mi
3:00 PM32 °FOvercast.5 mph64%30.20 "Hg15 mi
2:00 PM32 °FOvercast.7 mph60%30.19 "Hg15 mi
1:00 PM32 °FOvercast.7 mph60%30.21 "Hg30 mi
12:00 PM32 °FOvercast.6 mph60%30.22 "Hg30 mi
11:00 AM32 °FOvercast.7 mph60%30.22 "Hg30 mi
10:00 AM32 °FOvercast.7 mph60%30.27 "Hg15 mi
9:00 AM30 °FOvercast.8 mph59%30.27 "Hg15 mi
8:00 AM30 °FOvercast.7 mph59%30.26 "Hg15 mi
7:00 AM30 °FOvercast.6 mph59%30.24 "Hg15 mi
Weather by CustomWeather, © 2014

See weather overviewHow to use our weather pages